User: anonymous   Login
Location: Lynch Observatory
(39.9540°N, 75.1861°W)
Time: 20:54:04
(UTC-04:00)
Language:

UNISAT 6 - Orbit

View from above orbital plane
View from above orbital plane
View from above satellite
View from above satellite

Ground track
Ground track

The orbit data is extracted from the following two-line orbital elements,

1 40012U 14033C   24114.43244992  .00008623  00000-0  11352-2 0  9990
2 40012  97.6979 279.1275 0054336 123.3837 237.2591 14.79338676529747
Epoch (UTC): 23 April 2024 10:22:43
Eccentricity: 0.0054336
inclination: 97.6979°
perigee height: 593 km
apogee height: 669 km
right ascension of ascending node: 279.1275°
argument of perigee: 123.3837°
revolutions per day: 14.79338676
mean anomaly at epoch: 237.2591°
orbit number at epoch: 52974

The dashed part of the orbit path shows where the satellite is in the earth's shadow,  

DLR